Live-Position
3D-Globus wird geladen...
Über Starlink 11387
Group: 3 satellites
Beschreibung wird geladen...
Nächste Überflüge
Passes for default location (London). Set your location on the main map for personalized predictions.
Höhenverlauf
Loading altitude history...
No altitude history available
Zweizeiliger Elementsatz
1 62090U 24220C 26127.14187118 .00259308 00000-0 19519-2 0 9990
2 62090 43.0004 50.9705 0003047 279.1355 80.9168 15.70960566 84247
Epoch: 7. Mai 2026 •
Age: 8 hours
Aktueller Status
Höhe 358.0 km
Geschwindigkeit 7.70 km/s
Subsatellitenpunkt -16.95°S,
0.9°E
Startdatum 25. Nov. 2024
Alter 1.4 years
Typ internet
Startgruppe
Falcon 9 •
Group 12-1 •
21 satellites
Starlink 11384
62088
Starlink 11379 62089
Starlink 11389 62091
Starlink 11388 62092
Starlink 11345 62093
Starlink 11381 62094
Starlink 11369 62095
Starlink 11303 62096
Starlink 11367 62097
Starlink 11386 62098
Starlink 11380 62099
Starlink 33566 62100
Starlink 33545 62101
Starlink 33562 62102
Starlink 33554 62103
Starlink 33555 62104
Starlink 33559 62107
Starlink 33553 62108
Starlink 33556 62109
Starlink 33551 62110
Technische Details
Klassifizierung Payload
Masse 960.00 kg
Trockenmasse 910.00 kg
Gesamtmasse 960.00 kg
Länge 0.30 m
Durchmesser 4.10 m
Spannweite 29.00 m
Form Box + pan
Hersteller SPXS
Bus-Typ Starlink V2MD
Phasenstatus In Orbit
Besitzer/Staat SPXS/US
Most Searched
Loading...